Location: Kernascl�den
(48.0062°N, 3.3198°W)
Time: 17:29:04
(UTC+00:00)

SJ 16-02 - Pass Details

Date: 21 January 2021
Orbit: 606 x 616 km, 75.0° (Epoch: 01 March)

Event Time Altitude Azimuth Distance (km) Brightness Sun altitude
Rises 20:43:28 0° 262° (W) 2,873 5.6 -37.5°
Reaches altitude 10° 20:47:55 10° 305° (NW) 1,972 4.6 -38.2°
Enters shadow 20:48:28 10° 312° (NW) 1,952 4.5 -38.3°
